Change the Weather History Date:

Wednesday, February 29, 2012

  Actual Average Record
Temperature  
Mean Temperature 43 °F -  
Max Temperature 51 °F - 69 °F (1976)
Min Temperature 35 °F - 4 °F (1980)
Degree Days  
Heating Degree Days 22    
Moisture  
Dew Point 42 °F    
Average Humidity 94    
Maximum Humidity 100    
Minimum Humidity 49    
Precipitation  
Precipitation 0.95 in - - ()
Sea Level Pressure  
Sea Level Pressure 29.74 in    
Wind  
Wind Speed 5 mph (East)    
Max Wind Speed 13 mph    
Max Gust Speed -    
Visibility 3 miles    
Events Fog , Rain , Thunderstorm    
Averages and records for this station are not official NWS values.
T = Trace of Precipitation, MM = Missing Value Source: NWS Daily Summary

Daily Weather History Graph

Daily Weather History Graph

Search for Another Location

Airport or City:

Trip Planner

Search our weather history database for the weather conditions in past years. The results will help you decide how hot, cold, wet, or windy it might be!

Date:

Astronomy

Feb. 29, 2012 Rise Set
Actual Time 6:56 AM EST 6:12 PM EST
Civil Twilight 6:29 AM EST 6:39 PM EST
Nautical Twilight 5:57 AM EST 7:11 PM EST
Astronomical Twilight 5:25 AM EST 7:43 PM EST
Moon 10:42 AM EST (2/29) 1:01 AM EST (2/29)
Length of Visible Light 12h 10m
Length of Day
11h 15m
Waxing Crescent, 47% of the Moon is Illuminated
Feb 29
Waxing Crescent
Feb 29
First Quarter
Mar 8
Full
Mar 14
Last Quarter
Mar 22
New

Hourly Weather History & Observations

Time (EST) Temp. Windchill Dew Point Humidity Pressure Visibility Wind Dir Wind Speed Gust Speed Precip Events Conditions
12:56 AM 37.9 °F 35.5 °F 23.0 °F 55% 30.23 in 10.0 mi SE 3.5 mph - N/A   Scattered Clouds
1:56 AM 38.8 °F 33.8 °F 22.1 °F 51% 30.16 in 10.0 mi East 6.9 mph - N/A   Mostly Cloudy
2:56 AM 39.9 °F 35.8 °F 22.1 °F 49% 30.11 in 10.0 mi ESE 5.8 mph - N/A   Mostly Cloudy
3:56 AM 36.0 °F - 31.1 °F 82% 30.09 in 10.0 mi Calm Calm - 0.01 in Rain Light Rain
4:56 AM 36.0 °F 30.3 °F 32.0 °F 86% 30.05 in 4.0 mi ENE 6.9 mph - 0.02 in Rain Light Rain
5:56 AM 36.0 °F 32.1 °F 32.0 °F 86% 30.02 in 4.0 mi East 4.6 mph - 0.04 in Rain Light Rain
6:29 AM 35.6 °F 29.9 °F 33.8 °F 93% 29.94 in 2.5 mi East 6.9 mph - 0.07 in Rain Rain
6:46 AM 35.6 °F 27.1 °F 33.8 °F 93% 29.89 in 4.0 mi East 12.7 mph - 0.12 in Rain Light Rain
6:56 AM 36.0 °F 29.0 °F 34.0 °F 93% 29.97 in 3.0 mi East 9.2 mph - 0.15 in Rain Rain
7:17 AM 37.4 °F 33.8 °F 35.6 °F 93% 29.94 in 2.5 mi Variable 4.6 mph - 0.08 in Rain Rain
7:31 AM 37.4 °F 32.8 °F 35.6 °F 93% 29.94 in 2.0 mi NE 5.8 mph - 0.14 in Rain Heavy Rain
7:48 AM 35.6 °F 28.6 °F 35.6 °F 100% 29.91 in 1.5 mi ENE 9.2 mph - 0.27 in Rain Heavy Rain
7:56 AM 36.0 °F 28.0 °F 34.9 °F 96% 29.96 in 1.0 mi ENE 11.5 mph - 0.32 in Rain Heavy Rain
8:04 AM 35.6 °F 28.0 °F 35.6 °F 100% 29.89 in 1.0 mi East 10.4 mph - 0.03 in Rain Heavy Rain
8:35 AM 37.4 °F 32.1 °F 35.6 °F 93% 29.87 in 1.0 mi East 6.9 mph - 0.26 in Rain Heavy Rain
8:48 AM 37.4 °F 32.1 °F 37.4 °F 100% 29.85 in 1.5 mi ESE 6.9 mph - 0.30 in Rain Light Rain
8:56 AM 37.9 °F 30.9 °F 36.9 °F 96% 29.91 in 1.5 mi SE 10.4 mph - 0.32 in Rain Rain
9:27 AM 39.2 °F 34.2 °F 37.4 °F 93% 29.85 in 2.0 mi Variable 6.9 mph - 0.04 in Rain Light Rain
9:42 AM 39.2 °F 34.2 °F 37.4 °F 93% 29.83 in 4.0 mi ESE 6.9 mph - 0.04 in   Overcast
9:56 AM 39.9 °F 37.8 °F 37.9 °F 93% 29.90 in 2.0 mi Variable 3.5 mph - 0.04 in   Overcast
10:11 AM 39.2 °F 35.0 °F 37.4 °F 93% 29.82 in 1.2 mi Variable 5.8 mph - 0.00 in Rain Light Rain
10:25 AM 39.2 °F 37.0 °F 39.2 °F 100% 29.81 in 2.0 mi SE 3.5 mph - 0.00 in   Overcast
10:33 AM 39.2 °F - 39.2 °F 100% 29.80 in 1.8 mi Calm Calm - 0.00 in   Overcast
10:45 AM 39.2 °F 33.6 °F 39.2 °F 100% 29.79 in 2.5 mi ESE 8.1 mph - 0.02 in Rain , Thunderstorm Light Thunderstorms and Rain
11:02 AM 39.2 °F 35.0 °F 39.2 °F 100% 29.79 in 1.8 mi SSE 5.8 mph - 0.02 in Rain , Thunderstorm Heavy Thunderstorms and Rain
11:14 AM 41.0 °F - 39.2 °F 93% 29.78 in 2.5 mi Calm Calm - 0.03 in Rain Light Rain
11:20 AM 41.0 °F - 39.2 °F 93% 29.78 in 4.0 mi Calm Calm - 0.03 in Rain Light Rain
11:32 AM 41.0 °F 37.1 °F 39.2 °F 93% 29.79 in 1.8 mi ESE 5.8 mph - 0.04 in Rain Light Rain
11:40 AM 41.0 °F 38.0 °F 39.2 °F 93% 29.79 in 2.0 mi ESE 4.6 mph - 0.04 in Rain Light Rain
11:56 AM 39.9 °F 34.5 °F 38.8 °F 96% 29.85 in 3.0 mi East 8.1 mph - 0.05 in   Overcast
12:07 PM 39.2 °F 35.0 °F 39.2 °F 100% 29.78 in 2.5 mi Variable 5.8 mph - N/A   Overcast
12:18 PM 39.2 °F 35.9 °F 39.2 °F 100% 29.77 in 4.0 mi Variable 4.6 mph - N/A   Overcast
12:56 PM 41.0 °F 35.8 °F 39.9 °F 96% 29.81 in 6.0 mi SE 8.1 mph - N/A   Overcast
1:56 PM 43.9 °F 40.5 °F 43.0 °F 97% 29.77 in 5.0 mi SE 5.8 mph - N/A   Overcast
2:56 PM 47.8 °F - 45.9 °F 93% 29.74 in 5.0 mi ESE 4.6 mph - N/A   Overcast
3:56 PM 50.9 °F - 48.9 °F 93% 29.69 in 5.0 mi East 4.6 mph - N/A   Overcast
4:03 PM 51.8 °F - 48.2 °F 88% 29.63 in 6.0 mi ESE 5.8 mph - N/A   Overcast
4:41 PM 51.8 °F - 48.2 °F 88% 29.62 in 5.0 mi ESE 4.6 mph - N/A   Scattered Clouds
4:56 PM 50.9 °F - 48.9 °F 93% 29.67 in 4.0 mi East 4.6 mph - N/A   Partly Cloudy
5:56 PM 50.0 °F - 47.8 °F 92% 29.64 in 5.0 mi East 3.5 mph - N/A   Clear
6:32 PM 48.2 °F - 46.4 °F 93% 29.57 in 1.5 mi Calm Calm - N/A   Clear
6:42 PM 48.2 °F - 48.2 °F 100% 29.57 in 4.0 mi Calm Calm - N/A   Clear
6:56 PM 50.0 °F - 48.9 °F 96% 29.63 in 6.0 mi Variable 4.6 mph - 0.00 in Rain Light Rain
7:06 PM 48.2 °F - 46.4 °F 93% 29.56 in 3.0 mi Variable 4.6 mph - 0.00 in   Partly Cloudy
7:56 PM 50.9 °F - 50.0 °F 97% 29.59 in 7.0 mi SE 4.6 mph - 0.00 in   Partly Cloudy
8:16 PM 48.2 °F - 48.2 °F 100% 29.53 in 4.0 mi NNW 4.6 mph - N/A Thunderstorm Partly Cloudy
8:18 PM 48.2 °F - 46.4 °F 93% 29.53 in 1.2 mi NNW 4.6 mph - N/A Thunderstorm Mostly Cloudy
8:20 PM 46.4 °F 45.2 °F 46.4 °F 100% 29.53 in 0.8 mi NNW 3.5 mph - N/A Thunderstorm Mostly Cloudy
8:24 PM 46.4 °F - 46.4 °F 100% 29.53 in 0.5 mi Calm Calm - N/A Fog Fog
8:31 PM 46.4 °F 42.9 °F 46.4 °F 100% 29.54 in 0.2 mi NW 6.9 mph - N/A Fog Fog
8:39 PM 46.4 °F 42.4 °F 46.4 °F 100% 29.55 in 0.5 mi NNW 8.1 mph - N/A Fog , Thunderstorm Fog
8:42 PM 46.4 °F 42.4 °F 46.4 °F 100% 29.56 in 1.0 mi NNW 8.1 mph - N/A Thunderstorm Mist
8:45 PM 48.2 °F - 46.4 °F 93% 29.56 in 1.5 mi North 6.9 mph - N/A Thunderstorm Mostly Cloudy
8:49 PM 48.2 °F - 48.2 °F 100% 29.55 in 3.0 mi North 5.8 mph - N/A Thunderstorm Mostly Cloudy
8:56 PM 48.9 °F - 47.8 °F 96% 29.61 in 4.0 mi NE 4.6 mph - N/A   Mostly Cloudy
9:17 PM 48.2 °F - 48.2 °F 100% 29.55 in 4.0 mi ENE 4.6 mph - N/A   Overcast
9:44 PM 48.2 °F - 48.2 °F 100% 29.53 in 2.0 mi Calm Calm - N/A   Mostly Cloudy
10:02 PM 48.2 °F - 48.2 °F 100% 29.51 in 1.8 mi SW 5.8 mph - N/A Thunderstorm Mostly Cloudy
10:09 PM 48.2 °F - 48.2 °F 100% 29.52 in 2.0 mi Variable 4.6 mph - N/A Thunderstorm Mostly Cloudy
10:19 PM 51.8 °F - 51.8 °F 100% 29.52 in 6.0 mi SSW 9.2 mph - N/A Thunderstorm Mostly Cloudy
10:35 PM 51.8 °F - 50.0 °F 94% 29.53 in 10.0 mi WNW 4.6 mph - N/A Thunderstorm Mostly Cloudy
10:56 PM 48.9 °F - 47.8 °F 96% 29.59 in 4.0 mi Calm Calm - N/A   Mostly Cloudy
11:34 PM 51.8 °F - 48.2 °F 88% 29.54 in 1.0 mi NE 9.2 mph - N/A   Mostly Cloudy
11:36 PM 48.2 °F - 46.4 °F 93% 29.54 in 0.5 mi NE 8.1 mph - N/A Fog Fog
11:45 PM 48.2 °F - 48.2 °F 100% 29.55 in 1.0 mi NNW 3.5 mph - N/A   Mostly Cloudy
11:47 PM 48.2 °F - 48.2 °F 100% 29.54 in 3.0 mi NNW 4.6 mph - N/A   Scattered Clouds